TimeCST,TemperatureF,Dew PointF,Humidity,Sea Level PressureIn,VisibilityMPH,Wind Direction,Wind SpeedMPH,Gust SpeedMPH,PrecipitationIn,Events,Conditions,WindDirDegrees,DateUTC
12:15 AM,33.8,26.6,75,29.96,10.0,SSE,5.8,-,N/A,,Clear,160,2012-11-21 06:15:00
12:35 AM,33.8,26.6,75,29.95,10.0,South,11.5,-,N/A,,Clear,170,2012-11-21 06:35:00
12:55 AM,35.6,26.6,70,29.94,10.0,South,9.2,-,N/A,,Clear,170,2012-11-21 06:55:00
1:15 AM,33.8,26.6,75,29.94,10.0,South,9.2,-,N/A,,Clear,170,2012-11-21 07:15:00
1:35 AM,33.8,28.4,81,29.93,10.0,SE,3.5,-,N/A,,Clear,140,2012-11-21 07:35:00
1:55 AM,33.8,26.6,75,29.93,10.0,SE,4.6,-,N/A,,Clear,130,2012-11-21 07:55:00
2:15 AM,32.0,26.6,80,29.93,10.0,SE,5.8,-,N/A,,Clear,140,2012-11-21 08:15:00
2:35 AM,30.2,24.8,80,29.92,10.0,ESE,4.6,-,N/A,,Clear,120,2012-11-21 08:35:00
2:55 AM,28.4,24.8,86,29.92,10.0,SSE,5.8,-,N/A,,Clear,150,2012-11-21 08:55:00
3:15 AM,28.4,24.8,86,29.91,10.0,SSE,4.6,-,N/A,,Clear,150,2012-11-21 09:15:00
3:35 AM,30.2,26.6,86,29.91,10.0,SSE,4.6,-,N/A,,Clear,150,2012-11-21 09:35:00
3:55 AM,30.2,26.6,86,29.91,10.0,SSE,4.6,-,N/A,,Clear,150,2012-11-21 09:55:00
4:15 AM,28.4,24.8,86,29.91,10.0,Calm,Calm,-,N/A,,Clear,0,2012-11-21 10:15:00
4:35 AM,28.4,24.8,86,29.90,10.0,SE,3.5,-,N/A,,Clear,140,2012-11-21 10:35:00
4:55 AM,28.4,26.6,93,29.90,10.0,SSE,3.5,-,N/A,,Clear,150,2012-11-21 10:55:00
5:15 AM,28.4,24.8,86,29.90,10.0,South,4.6,-,N/A,,Clear,170,2012-11-21 11:15:00
5:35 AM,28.4,26.6,93,29.90,10.0,SE,3.5,-,N/A,,Clear,140,2012-11-21 11:35:00
5:55 AM,28.4,24.8,86,29.90,9.0,SSE,4.6,-,N/A,,Clear,150,2012-11-21 11:55:00
6:15 AM,26.6,24.8,93,29.90,10.0,SSE,4.6,-,N/A,,Clear,160,2012-11-21 12:15:00
6:35 AM,28.4,26.6,93,29.89,10.0,South,4.6,-,N/A,,Clear,180,2012-11-21 12:35:00
6:55 AM,30.2,26.6,86,29.89,10.0,SSE,5.8,-,N/A,,Clear,160,2012-11-21 12:55:00
7:15 AM,30.2,26.6,86,29.89,10.0,Calm,Calm,-,N/A,,Clear,0,2012-11-21 13:15:00
7:35 AM,30.2,28.4,93,29.90,9.0,Calm,Calm,-,N/A,,Clear,0,2012-11-21 13:35:00
7:55 AM,30.2,28.4,93,29.89,9.0,Calm,Calm,-,N/A,,Clear,0,2012-11-21 13:55:00
8:15 AM,30.2,28.4,93,29.90,9.0,Calm,Calm,-,N/A,,Clear,0,2012-11-21 14:15:00
8:35 AM,30.2,28.4,93,29.90,9.0,Calm,Calm,-,N/A,,Clear,0,2012-11-21 14:35:00
8:55 AM,33.8,30.2,87,29.90,10.0,SSE,4.6,-,N/A,,Clear,150,2012-11-21 14:55:00
9:15 AM,35.6,30.2,81,29.90,10.0,SSE,4.6,-,N/A,,Clear,150,2012-11-21 15:15:00
9:35 AM,35.6,28.4,75,29.90,10.0,SE,4.6,-,N/A,,Clear,140,2012-11-21 15:35:00
9:55 AM,37.4,30.2,75,29.90,10.0,SSE,3.5,-,N/A,,Clear,150,2012-11-21 15:55:00
10:15 AM,37.4,30.2,75,29.91,10.0,Calm,Calm,-,N/A,,Clear,0,2012-11-21 16:15:00
10:35 AM,39.2,30.2,70,29.91,10.0,South,3.5,-,N/A,,Clear,170,2012-11-21 16:35:00
10:55 AM,41.0,32.0,70,29.90,10.0,Calm,Calm,-,N/A,,Clear,0,2012-11-21 16:55:00
11:15 AM,42.8,32.0,66,29.89,10.0,Calm,Calm,-,N/A,,Clear,0,2012-11-21 17:15:00
11:35 AM,44.6,32.0,61,29.88,10.0,SE,3.5,-,N/A,,Clear,140,2012-11-21 17:35:00
11:55 AM,44.6,32.0,61,29.87,10.0,South,5.8,-,N/A,,Clear,170,2012-11-21 17:55:00
12:15 PM,46.4,33.8,62,29.88,10.0,Calm,Calm,-,N/A,,Clear,0,2012-11-21 18:15:00
12:35 PM,46.4,33.8,62,29.87,10.0,SSE,3.5,-,N/A,,Clear,160,2012-11-21 18:35:00
12:55 PM,46.4,33.8,62,29.86,10.0,SE,4.6,-,N/A,,Clear,130,2012-11-21 18:55:00
1:15 PM,46.4,32.0,57,29.85,10.0,SE,3.5,-,N/A,,Clear,140,2012-11-21 19:15:00
1:35 PM,46.4,33.8,62,29.84,10.0,SE,4.6,-,N/A,,Clear,130,2012-11-21 19:35:00
1:55 PM,48.2,33.8,58,29.84,10.0,SE,5.8,-,N/A,,Clear,130,2012-11-21 19:55:00
2:15 PM,48.2,33.8,58,29.83,10.0,SE,4.6,-,N/A,,Clear,140,2012-11-21 20:15:00
2:35 PM,50.0,33.8,54,29.83,10.0,SSE,5.8,-,N/A,,Clear,160,2012-11-21 20:35:00
2:55 PM,51.8,33.8,50,29.82,10.0,South,4.6,-,N/A,,Clear,170,2012-11-21 20:55:00
3:15 PM,51.8,33.8,50,29.82,10.0,ESE,4.6,-,N/A,,Clear,120,2012-11-21 21:15:00
3:35 PM,51.8,33.8,50,29.81,10.0,SE,6.9,-,N/A,,Clear,140,2012-11-21 21:35:00
3:55 PM,50.0,33.8,54,29.81,10.0,SSE,5.8,-,N/A,,Clear,150,2012-11-21 21:55:00
4:15 PM,50.0,32.0,50,29.80,10.0,SE,5.8,-,N/A,,Clear,140,2012-11-21 22:15:00
4:35 PM,48.2,32.0,54,29.80,10.0,SE,4.6,-,N/A,,Clear,130,2012-11-21 22:35:00
4:55 PM,46.4,32.0,57,29.79,10.0,SE,5.8,-,N/A,,Clear,140,2012-11-21 22:55:00
5:15 PM,46.4,32.0,57,29.78,10.0,SE,5.8,-,N/A,,Clear,140,2012-11-21 23:15:00
5:35 PM,46.4,32.0,57,29.77,10.0,SE,6.9,-,N/A,,Clear,140,2012-11-21 23:35:00
5:55 PM,46.4,32.0,57,29.76,10.0,SE,6.9,-,N/A,,Clear,130,2012-11-21 23:55:00
6:15 PM,44.6,32.0,61,29.75,10.0,SE,6.9,-,N/A,,Clear,140,2012-11-22 00:15:00
6:35 PM,44.6,33.8,66,29.75,10.0,SE,8.1,-,N/A,,Clear,140,2012-11-22 00:35:00
6:55 PM,44.6,33.8,66,29.74,10.0,SE,8.1,-,N/A,,Clear,130,2012-11-22 00:55:00
7:15 PM,44.6,33.8,66,29.74,10.0,SE,5.8,-,N/A,,Clear,140,2012-11-22 01:15:00
7:35 PM,42.8,33.8,70,29.73,10.0,SE,6.9,-,N/A,,Clear,140,2012-11-22 01:35:00
7:55 PM,42.8,33.8,70,29.71,10.0,SE,5.8,-,N/A,,Clear,140,2012-11-22 01:55:00
8:15 PM,42.8,33.8,70,29.71,10.0,SE,4.6,-,N/A,,Clear,140,2012-11-22 02:15:00
8:35 PM,41.0,33.8,76,29.69,10.0,SE,5.8,-,N/A,,Clear,140,2012-11-22 02:35:00
8:55 PM,41.0,33.8,76,29.68,10.0,SE,4.6,-,N/A,,Clear,130,2012-11-22 02:55:00
9:15 PM,39.2,33.8,81,29.67,10.0,ESE,3.5,-,N/A,,Clear,120,2012-11-22 03:15:00
9:35 PM,39.2,32.0,75,29.65,10.0,SE,3.5,-,N/A,,Clear,140,2012-11-22 03:35:00
9:55 PM,39.2,33.8,81,29.64,10.0,SE,4.6,-,N/A,,Clear,130,2012-11-22 03:55:00
10:15 PM,39.2,33.8,81,29.64,10.0,SE,6.9,-,N/A,,Clear,140,2012-11-22 04:15:00
10:35 PM,39.2,33.8,81,29.62,10.0,SE,4.6,-,N/A,,Clear,130,2012-11-22 04:35:00
10:55 PM,37.4,30.2,75,29.61,10.0,SE,4.6,-,N/A,,Clear,130,2012-11-22 04:55:00
11:15 PM,39.2,33.8,81,29.60,10.0,SE,4.6,-,N/A,,Clear,140,2012-11-22 05:15:00
11:35 PM,37.4,33.8,87,29.59,10.0,SE,4.6,-,N/A,,Clear,140,2012-11-22 05:35:00
11:55 PM,39.2,33.8,81,29.58,10.0,SSE,6.9,-,N/A,,Clear,150,2012-11-22 05:55:00